Regional Weather Roundup
Issued by NWS

Home | Current Version | Previous Version | Graphics & Text | Print | Product List | Glossary On
Versions: 1 2 3 4 5 6 7 8 9 10 11 12 13 14 15 16 17 18 19 20 21 22 23 24 25 26 27 28 29 30 31 32 33 34 35 36 37 38 39 40 41 42 43 44 45 46 47 48 49 50
000
ASUS45 KBOU 061007
RWRCO

WEATHER ROUNDUP FOR COLORADO
NATIONAL WEATHER SERVICE DENVER/BOULDER CO
400 AM MDT FRI MAY 06 2016

NOTE: "FAIR" INDICATES FEW OR NO CLOUDS BELOW 12000 FEET WITH NO
SIGNIFICANT WEATHER AND/OR OBSTRUCTIONS TO VISIBILITY.

COZ001>005-013-030-031-061100-
...NORTHWEST COLORADO...

CITY           SKY/WX    TMP DP  RH WIND       PRES   REMARKS
CRAIG          FAIR      41  34  76 S3        30.00S
HAYDEN         FAIR      52  28  40 NE5       30.02R
MEEKER         FAIR      43  32  65 CALM      30.02R
MOUNT WERNER   NOT AVBL
STEAMBOAT SPGS FAIR      46  32  58 NW6       30.03S
WALDEN         MOCLDY    37  32  81 CALM      30.14S
$$

COZ006>008-011-061100-
...WEST CENTRAL VALLEYS...

CITY           SKY/WX    TMP DP  RH WIND       PRES   REMARKS
GRAND JUNCTION MOCLDY    66  36  32 E15       29.87F
MONTROSE       CLOUDY    61  32  33 S9        29.96F
EAGLE          FAIR      45  30  57 CALM      30.06S
RIFLE          FAIR      49  38  65 NW6       29.99R
DELTA          NOT AVBL
NUCLA          NOT AVBL
$$

COZ017>023-064>068-061100-
...SOUTHWEST COLORADO...

CITY           SKY/WX    TMP DP  RH WIND       PRES   REMARKS
DURANGO        MOCLDY    58  27  30 SE16      30.01F
CORTEZ         FAIR      67  30  25 SE23G35   29.92F
PAGOSA SPRINGS CLOUDY    49  30  47 CALM      30.13S
TELLURIDE      LGT RAIN  52  33  49 SE10G25   30.16R
WOLF CREEK PAS CLOUDY    37  23  56 SW20G26   30.36S
$$

COZ009-010-012-014-032>034-037-058>063-061100-
...CENTRAL COLORADO...

CITY           SKY/WX    TMP DP  RH WIND       PRES   REMARKS
ASPEN          FAIR      44  29  55 S7        30.08S
BUENA VISTA    FAIR      38  32  77 CALM      30.18R
COPPER MTN     NOT AVBL
BERTHOUD PASS  FAIR      36  28  75 SW8       30.38S
COTTONWOOD PAS FAIR      48  25  40 CALM      30.26S
GUNNISON       FAIR      41  28  60 CALM      30.16R
KREMMLING      FAIR      41  32  70 CALM      30.12R
LEADVILLE      FAIR      36  25  64 SE3       30.23F
MONARCH PASS   FAIR      37  19  48 S12       30.46F
SALIDA         FAIR      43  32  64 CALM      30.23S
SUNLIGHT       FAIR      45  27  49 CALM      30.28S
WILKERSON PASS FAIR      39  25  56 SW5       30.36R
$$

COZ069>075-061100-
...SAN LUIS VALLEY/SANGRE DE CRISTO MOUNTAINS...

CITY           SKY/WX    TMP DP  RH WIND       PRES   REMARKS
ALAMOSA        CLOUDY    41  32  70 E6        30.14S
LA VETA PASS   FAIR      43  23  45 S5        30.28S
SAGUACHE       FAIR      37  32  81 CALM      30.17S
$$

COZ035-036-038>040-061100-
...NORTHERN COLORADO FRONT RANGE...

CITY           SKY/WX    TMP DP  RH WIND       PRES   REMARKS
DENVER INTL AP MOCLDY    51  39  63 S9        29.96F
DMNS CITY PARK   N/A     56  39  54 SE7       29.97S
AURORA         FAIR      53  41  62 S9        29.98F
FRONT RANGE AP NOT AVBL
ERIE MUNI ARPT FAIR      46  42  85 SW3       29.96S
BOULDER MUN AP FAIR      54  37  54 CALM      29.97S
CENTENNIAL     FAIR      51  39  63 S7        29.99F
BROOMFIELD     FAIR      57  34  41 NW9       29.99S
FORT COLLINS   FAIR      48  39  71 N8        29.97F
LONGMONT       FAIR      51  41  69 CALM      29.98S
$$

COZ041-046-047-076>085-087-088-061100-
...PIKES PEAK/PALMER DIVIDE AND SOUTHERN FOOTHILLS...

CITY           SKY/WX    TMP DP  RH WIND       PRES   REMARKS
COLO. SPRINGS  MOCLDY    47  38  71 NE6       30.05S
A. F. ACADEMY  FAIR      43  36  75 N7        30.06R
SCHRIEVER AFB  NOT AVBL
ELLICOTT       FAIR     N/A N/A N/A S6        30.04R
FALCON         NOT AVBL
FORT CARSON    FAIR      49  39  68 N6        30.02S
LIMON          FAIR      45  42  89 CALM      30.01F
MONUMENT HILL  FAIR      45  36  70 S9        30.08S
TRINIDAD       FAIR      63  21  20 SW22      30.02S
$$

COZ042>045-048>051-090-091-061100-
...NORTHEAST COLORADO...

CITY           SKY/WX    TMP DP  RH WIND       PRES   REMARKS
GREELEY ARPT   FAIR      52  43  71 NE6       29.96S
AKRON          FAIR      50  44  80 SE12      29.97F
BURLINGTON     FAIR      52  44  74 SE16      29.99F
WRAY           NOT AVBL
STERLING       FAIR      55  45  67 SW8       29.95S
HOLYOKE        NOT AVBL
FORT MORGAN    FAIR      54  42  64 E5        29.97F
$$

COZ086-089-092>099-061100-
...SOUTHEAST COLORADO...

CITY           SKY/WX    TMP DP  RH WIND       PRES   REMARKS
PUEBLO         FAIR      51  42  71 NW6       29.98S
LA JUNTA       FAIR      48  43  82 N7        29.96R
LAMAR          FAIR      49  46  90 E8        29.94F
SPRINGFIELD      N/A     50  38  63 SW10      29.99F
$$



USA.gov is the U.S. government's official web portal to all federal, state and local government web resources and services.